Time,TemperatureF,DewpointF,PressureIn,WindDirection,WindDirectionDegrees,WindSpeedMPH,WindSpeedGustMPH,Humidity,HourlyPrecipIn,Conditions,Clouds,dailyrainin,SoftwareType,DateUTC
2013-05-03 00:03:00,61.0,-99.9,30.20,NE,56,15.0,21.0,-999,-99.99,,,-99.99,,2013-05-03 04:03:00,
2013-05-03 00:13:00,62.0,-99.9,30.20,NE,55,15.0,20.0,-999,-99.99,,,-99.99,,2013-05-03 04:13:00,
2013-05-03 00:23:00,62.0,-99.9,30.19,ENE,61,16.0,21.0,-999,-99.99,,,-99.99,,2013-05-03 04:23:00,
2013-05-03 00:33:00,62.0,-99.9,30.19,ENE,58,15.0,21.0,-999,-99.99,,,-99.99,,2013-05-03 04:33:00,
2013-05-03 00:43:00,62.0,-99.9,30.19,ENE,58,14.0,22.0,-999,-99.99,,,-99.99,,2013-05-03 04:43:00,
2013-05-03 00:53:00,62.0,-99.9,30.19,ENE,57,14.0,20.0,-999,-99.99,,,-99.99,,2013-05-03 04:53:00,
2013-05-03 01:03:00,62.0,-99.9,30.19,ENE,62,12.0,20.0,-999,-99.99,,,-99.99,,2013-05-03 05:03:00,
2013-05-03 01:12:00,62.0,-99.9,30.19,NE,54,13.0,20.0,-999,-99.99,,,-99.99,,2013-05-03 05:12:00,
2013-05-03 01:22:00,62.0,-99.9,30.18,ENE,59,14.0,18.0,-999,-99.99,,,-99.99,,2013-05-03 05:22:00,
2013-05-03 01:32:00,62.0,-99.9,30.18,ENE,61,12.0,19.0,-999,-99.99,,,-99.99,,2013-05-03 05:32:00,
2013-05-03 01:42:00,62.0,-99.9,30.18,ENE,61,12.0,18.0,-999,-99.99,,,-99.99,,2013-05-03 05:42:00,
2013-05-03 01:52:00,62.0,-99.9,30.17,ENE,58,11.0,18.0,-999,-99.99,,,-99.99,,2013-05-03 05:52:00,
2013-05-03 02:02:00,62.0,-99.9,30.16,NE,55,11.0,20.0,-999,-99.99,,,-99.99,,2013-05-03 06:02:00,
2013-05-03 02:12:00,62.0,-99.9,30.16,ENE,57,15.0,20.0,-999,-99.99,,,-99.99,,2013-05-03 06:12:00,
2013-05-03 02:22:00,61.0,-99.9,30.15,ENE,57,11.0,21.0,-999,-99.99,,,-99.99,,2013-05-03 06:22:00,
2013-05-03 02:32:00,62.0,-99.9,30.15,NE,54,14.0,20.0,-999,-99.99,,,-99.99,,2013-05-03 06:32:00,
2013-05-03 02:42:00,62.0,-99.9,30.15,NE,52,12.0,17.0,-999,-99.99,,,-99.99,,2013-05-03 06:42:00,
2013-05-03 02:52:00,62.0,-99.9,30.15,NE,56,12.0,17.0,-999,-99.99,,,-99.99,,2013-05-03 06:52:00,
2013-05-03 03:02:00,62.0,-99.9,30.15,ENE,61,14.0,17.0,-999,-99.99,,,-99.99,,2013-05-03 07:02:00,
2013-05-03 03:11:00,62.0,-99.9,30.14,NE,56,13.0,20.0,-999,-99.99,,,-99.99,,2013-05-03 07:11:00,
2013-05-03 03:22:00,61.0,-99.9,30.15,NE,52,13.0,20.0,-999,-99.99,,,-99.99,,2013-05-03 07:22:00,
2013-05-03 03:32:00,61.0,-99.9,30.14,ENE,57,13.0,19.0,-999,-99.99,,,-99.99,,2013-05-03 07:32:00,
2013-05-03 03:42:00,61.0,-99.9,30.14,NE,51,13.0,18.0,-999,-99.99,,,-99.99,,2013-05-03 07:42:00,
2013-05-03 03:52:00,61.0,-99.9,30.14,NE,53,11.0,17.0,-999,-99.99,,,-99.99,,2013-05-03 07:52:00,
2013-05-03 04:02:00,61.0,-99.9,30.14,NE,52,13.0,22.0,-999,-99.99,,,-99.99,,2013-05-03 08:02:00,
2013-05-03 04:12:00,61.0,-99.9,30.14,NE,52,13.0,18.0,-999,-99.99,,,-99.99,,2013-05-03 08:12:00,
2013-05-03 04:22:00,61.0,-99.9,30.14,NE,49,12.0,18.0,-999,-99.99,,,-99.99,,2013-05-03 08:22:00,
2013-05-03 04:32:00,61.0,-99.9,30.14,NE,51,13.0,19.0,-999,-99.99,,,-99.99,,2013-05-03 08:32:00,
2013-05-03 04:42:00,61.0,-99.9,30.14,NE,54,13.0,20.0,-999,-99.99,,,-99.99,,2013-05-03 08:42:00,
2013-05-03 04:53:00,61.0,-99.9,30.14,NE,54,11.0,18.0,-999,-99.99,,,-99.99,,2013-05-03 08:53:00,
2013-05-03 05:01:00,61.0,-99.9,30.14,NE,52,12.0,20.0,-999,-99.99,,,-99.99,,2013-05-03 09:01:00,
2013-05-03 05:12:00,61.0,-99.9,30.14,ENE,57,13.0,18.0,-999,-99.99,,,-99.99,,2013-05-03 09:12:00,
2013-05-03 05:22:00,61.0,-99.9,30.14,NE,53,13.0,18.0,-999,-99.99,,,-99.99,,2013-05-03 09:22:00,
2013-05-03 05:33:00,61.0,-99.9,30.14,NE,53,14.0,20.0,-999,-99.99,,,-99.99,,2013-05-03 09:33:00,
2013-05-03 05:43:00,61.0,-99.9,30.14,ENE,58,14.0,18.0,-999,-99.99,,,-99.99,,2013-05-03 09:43:00,
2013-05-03 05:53:00,61.0,-99.9,30.14,NE,51,13.0,18.0,-999,-99.99,,,-99.99,,2013-05-03 09:53:00,
2013-05-03 06:03:00,61.0,-99.9,30.14,ENE,57,15.0,21.0,-999,-99.99,,,-99.99,,2013-05-03 10:03:00,
2013-05-03 06:13:00,61.0,-99.9,30.14,NE,54,17.0,23.0,-999,-99.99,,,-99.99,,2013-05-03 10:13:00,
2013-05-03 06:22:00,62.0,-99.9,30.14,NE,52,16.0,23.0,-999,-99.99,,,-99.99,,2013-05-03 10:22:00,
2013-05-03 06:32:00,62.0,-99.9,30.14,NE,56,14.0,22.0,-999,-99.99,,,-99.99,,2013-05-03 10:32:00,
2013-05-03 06:42:00,62.0,-99.9,30.14,ENE,58,15.0,25.0,-999,-99.99,,,-99.99,,2013-05-03 10:42:00,
2013-05-03 06:52:00,62.0,-99.9,30.14,NE,56,15.0,24.0,-999,-99.99,,,-99.99,,2013-05-03 10:52:00,
2013-05-03 07:02:00,62.0,-99.9,30.14,NE,52,16.0,26.0,-999,-99.99,,,-99.99,,2013-05-03 11:02:00,
2013-05-03 07:11:00,61.0,-99.9,30.15,NE,52,17.0,24.0,-999,-99.99,,,-99.99,,2013-05-03 11:11:00,
2013-05-03 07:22:00,62.0,-99.9,30.16,NE,53,18.0,24.0,-999,-99.99,,,-99.99,,2013-05-03 11:22:00,
2013-05-03 07:32:00,62.0,-99.9,30.16,ENE,57,17.0,27.0,-999,-99.99,,,-99.99,,2013-05-03 11:32:00,
2013-05-03 07:42:00,62.0,-99.9,30.16,NE,52,15.0,26.0,-999,-99.99,,,-99.99,,2013-05-03 11:42:00,
2013-05-03 07:52:00,62.0,-99.9,30.16,NE,56,19.0,27.0,-999,-99.99,,,-99.99,,2013-05-03 11:52:00,
2013-05-03 08:02:00,62.0,-99.9,30.16,ENE,61,17.0,29.0,-999,-99.99,,,-99.99,,2013-05-03 12:02:00,
2013-05-03 08:12:00,62.0,-99.9,30.16,NE,56,18.0,28.0,-999,-99.99,,,-99.99,,2013-05-03 12:12:00,
2013-05-03 08:22:00,62.0,-99.9,30.17,ENE,59,14.0,22.0,-999,-99.99,,,-99.99,,2013-05-03 12:22:00,
2013-05-03 08:32:00,62.0,-99.9,30.16,ENE,57,17.0,27.0,-999,-99.99,,,-99.99,,2013-05-03 12:32:00,
2013-05-03 08:42:00,63.0,-99.9,30.16,ENE,59,16.0,23.0,-999,-99.99,,,-99.99,,2013-05-03 12:42:00,
2013-05-03 08:52:00,63.0,-99.9,30.17,ENE,61,16.0,27.0,-999,-99.99,,,-99.99,,2013-05-03 12:52:00,
2013-05-03 09:01:00,63.0,-99.9,30.17,ENE,64,15.0,27.0,-999,-99.99,,,-99.99,,2013-05-03 13:01:00,
2013-05-03 09:11:00,63.0,-99.9,30.17,ENE,60,19.0,26.0,-999,-99.99,,,-99.99,,2013-05-03 13:11:00,
2013-05-03 09:22:00,62.0,-99.9,30.18,ENE,63,15.0,22.0,-999,-99.99,,,-99.99,,2013-05-03 13:22:00,
2013-05-03 09:32:00,63.0,-99.9,30.17,ENE,65,19.0,27.0,-999,-99.99,,,-99.99,,2013-05-03 13:32:00,
2013-05-03 09:42:00,63.0,-99.9,30.18,ENE,62,21.0,29.0,-999,-99.99,,,-99.99,,2013-05-03 13:42:00,
2013-05-03 09:52:00,63.0,-99.9,30.18,ENE,65,22.0,32.0,-999,-99.99,,,-99.99,,2013-05-03 13:52:00,
2013-05-03 10:02:00,63.0,-99.9,30.18,ENE,64,17.0,31.0,-999,-99.99,,,-99.99,,2013-05-03 14:02:00,
2013-05-03 10:11:00,63.0,-99.9,30.18,ENE,62,21.0,32.0,-999,-99.99,,,-99.99,,2013-05-03 14:11:00,
2013-05-03 10:22:00,63.0,-99.9,30.18,ENE,63,19.0,30.0,-999,-99.99,,,-99.99,,2013-05-03 14:22:00,
2013-05-03 10:32:00,62.0,-99.9,30.18,ENE,64,23.0,36.0,-999,-99.99,,,-99.99,,2013-05-03 14:32:00,
2013-05-03 10:42:00,63.0,-99.9,30.18,ENE,64,17.0,38.0,-999,-99.99,,,-99.99,,2013-05-03 14:42:00,
2013-05-03 10:52:00,63.0,-99.9,30.19,ENE,59,17.0,33.0,-999,-99.99,,,-99.99,,2013-05-03 14:52:00,
2013-05-03 11:01:00,62.0,-99.9,30.19,ENE,67,26.0,32.0,-999,-99.99,,,-99.99,,2013-05-03 15:01:00,
2013-05-03 11:11:00,62.0,-99.9,30.19,ENE,66,23.0,35.0,-999,-99.99,,,-99.99,,2013-05-03 15:11:00,
2013-05-03 11:22:00,62.0,-99.9,30.19,ENE,62,22.0,31.0,-999,-99.99,,,-99.99,,2013-05-03 15:22:00,
2013-05-03 11:32:00,62.0,-99.9,30.20,ENE,70,19.0,32.0,-999,-99.99,,,-99.99,,2013-05-03 15:32:00,
2013-05-03 11:43:00,61.0,-99.9,30.20,ENE,68,23.0,33.0,-999,-99.99,,,-99.99,,2013-05-03 15:43:00,
2013-05-03 11:53:00,61.0,-99.9,30.21,ENE,63,21.0,30.0,-999,-99.99,,,-99.99,,2013-05-03 15:53:00,
2013-05-03 12:03:00,61.0,-99.9,30.21,ENE,67,21.0,33.0,-999,-99.99,,,-99.99,,2013-05-03 16:03:00,
2013-05-03 12:13:00,61.0,-99.9,30.21,ENE,64,19.0,27.0,-999,-99.99,,,-99.99,,2013-05-03 16:13:00,
2013-05-03 12:23:00,62.0,-99.9,30.20,ENE,65,21.0,32.0,-999,-99.99,,,-99.99,,2013-05-03 16:23:00,
2013-05-03 12:33:00,62.0,-99.9,30.20,ENE,65,21.0,32.0,-999,-99.99,,,-99.99,,2013-05-03 16:33:00,
2013-05-03 12:42:00,62.0,-99.9,30.20,ENE,66,22.0,33.0,-999,-99.99,,,-99.99,,2013-05-03 16:42:00,
2013-05-03 12:52:00,62.0,-99.9,30.20,ENE,63,19.0,30.0,-999,-99.99,,,-99.99,,2013-05-03 16:52:00,
2013-05-03 13:02:00,62.0,-99.9,30.19,ENE,66,24.0,33.0,-999,-99.99,,,-99.99,,2013-05-03 17:02:00,
2013-05-03 13:12:00,62.0,-99.9,30.20,ENE,66,22.0,32.0,-999,-99.99,,,-99.99,,2013-05-03 17:12:00,
2013-05-03 13:23:00,62.0,-99.9,30.19,ENE,63,23.0,30.0,-999,-99.99,,,-99.99,,2013-05-03 17:23:00,
2013-05-03 13:32:00,62.0,-99.9,30.19,ENE,62,22.0,31.0,-999,-99.99,,,-99.99,,2013-05-03 17:32:00,
2013-05-03 13:42:00,62.0,-99.9,30.19,ENE,60,21.0,35.0,-999,-99.99,,,-99.99,,2013-05-03 17:42:00,
2013-05-03 13:52:00,62.0,-99.9,30.19,ENE,70,25.0,33.0,-999,-99.99,,,-99.99,,2013-05-03 17:52:00,
2013-05-03 14:01:00,61.0,-99.9,30.19,ENE,66,24.0,34.0,-999,-99.99,,,-99.99,,2013-05-03 18:01:00,
2013-05-03 14:12:00,62.0,-99.9,30.19,ENE,70,21.0,35.0,-999,-99.99,,,-99.99,,2013-05-03 18:12:00,
2013-05-03 14:22:00,62.0,-99.9,30.20,ENE,64,24.0,36.0,-999,-99.99,,,-99.99,,2013-05-03 18:22:00,
2013-05-03 14:32:00,62.0,-99.9,30.20,ENE,65,21.0,30.0,-999,-99.99,,,-99.99,,2013-05-03 18:32:00,
2013-05-03 14:42:00,61.0,-99.9,30.20,ENE,65,20.0,31.0,-999,-99.99,,,-99.99,,2013-05-03 18:42:00,
2013-05-03 14:52:00,62.0,-99.9,30.20,ENE,64,21.0,31.0,-999,-99.99,,,-99.99,,2013-05-03 18:52:00,
2013-05-03 15:02:00,61.0,-99.9,30.19,ENE,64,23.0,34.0,-999,-99.99,,,-99.99,,2013-05-03 19:02:00,
2013-05-03 15:11:00,61.0,-99.9,30.19,ENE,64,25.0,35.0,-999,-99.99,,,-99.99,,2013-05-03 19:11:00,
2013-05-03 15:22:00,60.0,-99.9,30.18,ENE,59,22.0,32.0,-999,-99.99,,,-99.99,,2013-05-03 19:22:00,
2013-05-03 15:32:00,60.0,-99.9,30.18,ENE,64,22.0,32.0,-999,-99.99,,,-99.99,,2013-05-03 19:32:00,
2013-05-03 15:42:00,60.0,-99.9,30.18,ENE,59,21.0,33.0,-999,-99.99,,,-99.99,,2013-05-03 19:42:00,
2013-05-03 15:52:00,60.0,-99.9,30.17,ENE,65,25.0,32.0,-999,-99.99,,,-99.99,,2013-05-03 19:52:00,
2013-05-03 16:02:00,60.0,-99.9,30.16,ENE,60,22.0,35.0,-999,-99.99,,,-99.99,,2013-05-03 20:02:00,
2013-05-03 16:12:00,60.0,-99.9,30.16,ENE,63,24.0,32.0,-999,-99.99,,,-99.99,,2013-05-03 20:12:00,
2013-05-03 16:22:00,60.0,-99.9,30.16,ENE,61,23.0,32.0,-999,-99.99,,,-99.99,,2013-05-03 20:22:00,
2013-05-03 16:32:00,59.0,-99.9,30.16,NE,55,23.0,33.0,-999,-99.99,,,-99.99,,2013-05-03 20:32:00,
2013-05-03 16:42:00,60.0,-99.9,30.16,ENE,61,17.0,27.0,-999,-99.99,,,-99.99,,2013-05-03 20:42:00,
2013-05-03 16:52:00,59.0,-99.9,30.16,ENE,59,23.0,29.0,-999,-99.99,,,-99.99,,2013-05-03 20:52:00,
2013-05-03 17:02:00,59.0,-99.9,30.16,ENE,63,21.0,28.0,-999,-99.99,,,-99.99,,2013-05-03 21:02:00,
2013-05-03 17:11:00,59.0,-99.9,30.16,NE,53,23.0,33.0,-999,-99.99,,,-99.99,,2013-05-03 21:11:00,
2013-05-03 17:22:00,59.0,-99.9,30.16,ENE,59,20.0,28.0,-999,-99.99,,,-99.99,,2013-05-03 21:22:00,
2013-05-03 17:33:00,59.0,-99.9,30.16,NE,55,19.0,31.0,-999,-99.99,,,-99.99,,2013-05-03 21:33:00,
2013-05-03 17:43:00,59.0,-99.9,30.16,NE,50,18.0,31.0,-999,-99.99,,,-99.99,,2013-05-03 21:43:00,
2013-05-03 17:53:00,59.0,-99.9,30.16,NE,55,18.0,30.0,-999,-99.99,,,-99.99,,2013-05-03 21:53:00,
2013-05-03 18:03:00,59.0,-99.9,30.16,NE,49,18.0,30.0,-999,-99.99,,,-99.99,,2013-05-03 22:03:00,
2013-05-03 18:13:00,59.0,-99.9,30.16,NE,53,22.0,31.0,-999,-99.99,,,-99.99,,2013-05-03 22:13:00,
2013-05-03 18:22:00,58.0,-99.9,30.16,NE,52,23.0,29.0,-999,-99.99,,,-99.99,,2013-05-03 22:22:00,
2013-05-03 18:32:00,59.0,-99.9,30.16,NE,52,19.0,33.0,-999,-99.99,,,-99.99,,2013-05-03 22:32:00,
2013-05-03 18:42:00,59.0,-99.9,30.16,NE,52,16.0,26.0,-999,-99.99,,,-99.99,,2013-05-03 22:42:00,
2013-05-03 18:52:00,58.0,-99.9,30.16,ENE,60,21.0,31.0,-999,-99.99,,,-99.99,,2013-05-03 22:52:00,
2013-05-03 19:02:00,58.0,-99.9,30.16,ENE,62,21.0,31.0,-999,-99.99,,,-99.99,,2013-05-03 23:02:00,
2013-05-03 19:11:00,58.0,-99.9,30.16,ENE,61,20.0,30.0,-999,-99.99,,,-99.99,,2013-05-03 23:11:00,
2013-05-03 19:22:00,58.0,-99.9,30.16,NE,54,19.0,26.0,-999,-99.99,,,-99.99,,2013-05-03 23:22:00,
2013-05-03 19:32:00,58.0,-99.9,30.16,NE,55,20.0,32.0,-999,-99.99,,,-99.99,,2013-05-03 23:32:00,
2013-05-03 19:41:00,58.0,-99.9,30.16,NE,53,18.0,32.0,-999,-99.99,,,-99.99,,2013-05-03 23:41:00,
2013-05-03 19:52:00,58.0,-99.9,30.16,NE,53,22.0,30.0,-999,-99.99,,,-99.99,,2013-05-03 23:52:00,
2013-05-03 20:01:00,58.0,-99.9,30.16,NE,49,20.0,29.0,-999,-99.99,,,-99.99,,2013-05-04 00:01:00,
2013-05-03 20:11:00,58.0,-99.9,30.16,ENE,57,19.0,28.0,-999,-99.99,,,-99.99,,2013-05-04 00:11:00,
2013-05-03 20:23:00,58.0,-99.9,30.16,NE,49,23.0,30.0,-999,-99.99,,,-99.99,,2013-05-04 00:23:00,
2013-05-03 20:32:00,58.0,-99.9,30.17,NE,52,21.0,30.0,-999,-99.99,,,-99.99,,2013-05-04 00:32:00,
2013-05-03 20:42:00,58.0,-99.9,30.17,NE,49,19.0,26.0,-999,-99.99,,,-99.99,,2013-05-04 00:42:00,
2013-05-03 20:52:00,58.0,-99.9,30.17,NE,51,18.0,27.0,-999,-99.99,,,-99.99,,2013-05-04 00:52:00,
2013-05-03 21:01:00,58.0,-99.9,30.16,NE,48,21.0,29.0,-999,-99.99,,,-99.99,,2013-05-04 01:01:00,
2013-05-03 21:11:00,57.0,-99.9,30.16,NE,46,23.0,30.0,-999,-99.99,,,-99.99,,2013-05-04 01:11:00,
2013-05-03 21:22:00,58.0,-99.9,30.17,NE,45,18.0,28.0,-999,-99.99,,,-99.99,,2013-05-04 01:22:00,
2013-05-03 21:32:00,58.0,-99.9,30.17,NE,51,18.0,30.0,-999,-99.99,,,-99.99,,2013-05-04 01:32:00,
2013-05-03 21:42:00,57.0,-99.9,30.16,NE,52,21.0,28.0,-999,-99.99,,,-99.99,,2013-05-04 01:42:00,
2013-05-03 21:52:00,57.0,-99.9,30.16,NE,53,22.0,30.0,-999,-99.99,,,-99.99,,2013-05-04 01:52:00,
2013-05-03 22:02:00,57.0,-99.9,30.17,NE,54,20.0,32.0,-999,-99.99,,,-99.99,,2013-05-04 02:02:00,
2013-05-03 22:11:00,57.0,-99.9,30.17,NE,53,17.0,29.0,-999,-99.99,,,-99.99,,2013-05-04 02:11:00,
2013-05-03 22:22:00,58.0,-99.9,30.17,NE,51,21.0,28.0,-999,-99.99,,,-99.99,,2013-05-04 02:22:00,
2013-05-03 22:32:00,58.0,-99.9,30.17,NE,51,20.0,26.0,-999,-99.99,,,-99.99,,2013-05-04 02:32:00,
2013-05-03 22:42:00,58.0,-99.9,30.16,NE,52,20.0,29.0,-999,-99.99,,,-99.99,,2013-05-04 02:42:00,
2013-05-03 22:52:00,58.0,-99.9,30.16,NE,49,23.0,30.0,-999,-99.99,,,-99.99,,2013-05-04 02:52:00,
2013-05-03 23:02:00,57.0,-99.9,30.16,NE,52,21.0,29.0,-999,-99.99,,,-99.99,,2013-05-04 03:02:00,
2013-05-03 23:11:00,57.0,-99.9,30.15,NE,48,24.0,33.0,-999,-99.99,,,-99.99,,2013-05-04 03:11:00,
2013-05-03 23:22:00,57.0,-99.9,30.15,NE,48,21.0,28.0,-999,-99.99,,,-99.99,,2013-05-04 03:22:00,
2013-05-03 23:33:00,57.0,-99.9,30.14,NE,53,20.0,30.0,-999,-99.99,,,-99.99,,2013-05-04 03:33:00,
2013-05-03 23:43:00,57.0,-99.9,30.14,NE,52,18.0,31.0,-999,-99.99,,,-99.99,,2013-05-04 03:43:00,
2013-05-03 23:53:00,57.0,-99.9,30.13,NE,49,23.0,31.0,-999,-99.99,,,-99.99,,2013-05-04 03:53:00,